Weather Service Report


909 
ASUS44 KMEG 282010
RWRMEG
MEMPHIS CWA HOURLY WEATHER ROUNDUP
NATIONAL WEATHER SERVICE MEMPHIS TN
300 PM CDT THU JUL 28 2016

...WEST TENNESSEE...
  
CITY           SKY/WX    TMP DP  RH WIND       PRES   REMARKS
MEMPHIS INTL   PTSUNNY   88  77  69 S9        29.94F HX 100           
NWS MEMPHIS      N/A     86 N/A N/A MISG        N/A                   
JACKSON        MOSUNNY   88  75  65 SW12      29.92F HX  97           
LEXINGTON      MOSUNNY   84  75  74 SW6       29.91F HX  92           
DYERSBURG      MOSUNNY  N/A N/A N/A MISG        N/A                   
UNION CITY     MOSUNNY   88  79  74 SW6       29.90F HX 102           
PARIS          PTSUNNY   84  73  70 W7        29.92F HX  91           


...EASTERN ARKANSAS...
  
CITY           SKY/WX    TMP DP  RH WIND       PRES   REMARKS
JONESBORO      MOSUNNY   89  75  63 SW6       29.89F HX  99           
WEST MEMPHIS   MOSUNNY   85  77  77 S9        29.92F HX  95           
BATESVILLE     CLOUDY    91  75  59 SW5       29.90F HX 102           
NEWPORT        CLOUDY    93  79  62 S12       29.91F HX 110           
WALNUT RIDGE   MOSUNNY   91  75  59 S9        29.88F HX 102           
BLYTHEVILLE    MOSUNNY   89  77  67 SW8       29.91F HX 101           
NW BLYTHEVILLE PTSUNNY   91  77  62 SW9       29.90  HX 105           
SEARCY         MOSUNNY   92  78  63 S8        29.92F HX 107           
STUTTGART      PTSUNNY   88  75  66 S14       29.94F HX  97           
PINE BLUFF     CLOUDY    83  74  74 S14       29.97S                  
MONTICELLO     CLOUDY    79  74  84 S10       30.00S                  


...NORTH MISSISSIPPI...
  
CITY           SKY/WX    TMP DP  RH WIND       PRES   REMARKS
TUPELO         PTSUNNY   87  74  64 SW9G17    29.95F HX  95           
OXFORD         PTSUNNY   82  72  69 SW10G17   29.99S                  
BATESVILLE     PTSUNNY   84  74  72 SW12      29.97F HX  92           
OLIVE BRANCH   PTSUNNY  N/A N/A N/A SW9       29.95F                  
TUNICA         MOSUNNY   84  75  74 SW12      29.95F HX  92           
CLARKSDALE     PTSUNNY   86  79  79 SW12      29.96F HX  99           
CORINTH        PTSUNNY   84  73  70 SW9G20    29.93F THUNDER HX  91   
GREENWOOD      LGT RAIN  77  74  90 SW10      30.00F                  
GOLDEN TRIANGL PTSUNNY   84  72  65 SW12      29.99S                  


...SOUTHEAST MISSOURI...
  
CITY           SKY/WX    TMP DP  RH WIND       PRES   REMARKS
KENNETT        MOSUNNY   90  77  66 SW8       29.88F HX 102           
WEST PLAINS    MOSUNNY   90  68  48 SW3       29.95F HX  94           
POPLAR BLUFF   CLOUDY    88  77  69 S10       29.88F HX 100           
CAPE GIRARDEAU CLOUDY    83  76  79 SW7       29.88S HX  91           


...NORTHWEST ALABAMA...
  
CITY           SKY/WX    TMP DP  RH WIND       PRES   REMARKS
MUSCLE SHOALS  CLOUDY    79  75  87 S6        29.97F                  


...MIDDLE TENNESSEE...
  
CITY           SKY/WX    TMP DP  RH WIND       PRES   REMARKS
NASHVILLE      PTSUNNY   83  71  67 NW8       29.92S                  
CLARKSVILLE    CLOUDY    84  71  65 CALM      29.90F                  
COLUMBIA       CLOUDY    82  82 100 W7        29.92S HX  97           


...WESTERN KENTUCKY...
  
CITY           SKY/WX    TMP DP  RH WIND       PRES   REMARKS
PADUCAH        MOSUNNY   88  75  65 W7        29.87F HX  97           


...CENTRAL ARKANSAS...
  
CITY           SKY/WX    TMP DP  RH WIND       PRES   REMARKS
LITTLE ROCK    CLOUDY    90  76  63 S13       29.93F HX 101           


SKY/WX REPORTED AS FAIR MEANS FEW OR NO CLOUDS BELOW
12 THOUSAND FEET.

  


911 
ASUS44 KMEG 282010
RWRTN 
TENNESSEE HOURLY STATE WEATHER ROUNDUP
NATIONAL WEATHER SERVICE MEMPHIS TN
300 PM CDT THU JUL 28 2016

TNZ002-004-019-021-049-052-054-088>092-282100-
WEST TENNESSEE
  
CITY           SKY/WX    TMP DP  RH WIND       PRES   REMARKS
MEMPHIS INTL   PTSUNNY   88  77  69 S9        29.94F HX 100           
NWS MEMPHIS      N/A     86 N/A N/A MISG        N/A                   
JACKSON        MOSUNNY   88  75  65 SW12      29.92F HX  97           
DYERSBURG      MOSUNNY  N/A N/A N/A MISG        N/A                   
UNION CITY     MOSUNNY   88  79  74 SW6       29.90F HX 102           
PARIS          PTSUNNY   84  73  70 W7        29.92F HX  91           
LEXINGTON      MOSUNNY   84  75  74 SW6       29.91F HX  92           
$$

TNZ008-025-027-028-033-062-065-066-282100-
NORTH MIDDLE TENNESSEE
  
CITY           SKY/WX    TMP DP  RH WIND       PRES   REMARKS
NASHVILLE      PTSUNNY   83  71  67 NW8       29.92S                  
CLARKSVILLE    CLOUDY    84  71  65 CALM      29.90F                  
SMYRNA         CLOUDY    81  75  81 N10       29.92S                  
COOKEVILLE     PTSUNNY   79  75  89 VRB7      29.91F                  
CROSSVILLE     CLOUDY    74  72  93 SW5       29.97S                  
$$

TNZ061-075-076-078-094-096-097-282100-
SOUTH MIDDLE TENNESSEE
  
CITY           SKY/WX    TMP DP  RH WIND       PRES   REMARKS
FAYETTEVILLE   MOSUNNY   81  75  83 W8        29.95F                  
TULLAHOMA      PTSUNNY   82  72  69 W10       29.95S                  
WINCHESTER     CLOUDY    73  72  94 W10       29.97R                  
MCMINNVILLE    PTSUNNY   77  77 100 SW8       29.94R                  
COLUMBIA       CLOUDY    82  82 100 W7        29.92S HX  97           
SHELBYVILLE    CLOUDY    81  75  83 W10       29.94S                  
$$

TNZ017-018-042-046-047-282100-
NORTHEAST TENNESSEE
  
CITY           SKY/WX    TMP DP  RH WIND       PRES   REMARKS
TRI CITIES     MOSUNNY   89  68  49 SW15      29.92F HX  93           
ELIZABETHTON   PTSUNNY   88  70  55 NW8G16    29.91F HX  92           
$$

TNZ012-013-036-069-073-074-282100-
CENTRAL EAST TENNESSEE
  
CITY           SKY/WX    TMP DP  RH WIND       PRES   REMARKS
KNOXVILLE      PTSUNNY   85  69  58 SW17      29.91F                  
OAK RIDGE      CLOUDY    82  71  69 VRB6      29.93F                  
MORRISTOWN     CLOUDY    86  66  51 SW14G21   29.92S                  
$$

TNZ083-085-099-282100-
SOUTHEAST TENNESSEE
  
CITY           SKY/WX    TMP DP  RH WIND       PRES   REMARKS
CHATTANOOGA    PTSUNNY   80  73  79 SW5       29.93S                  
$$

SKY/WX REPORTED AS FAIR MEANS FEW OR NO CLOUDS BELOW
12 THOUSAND FEET.

  

Return to Home page


Western Regional Climate Center, wrcc@dri.edu